This is the latest recevied weather packets stored in our database for station/object G8SIB-9. If no packets are shown the sender has not sent any weather packets the latest 10 day(s).
| Time | Temp. | Humidity | Pressure | Rain* | Wind** | Luminosity | Snow |
|---|---|---|---|---|---|---|---|
| 1778102908 | 9.44° C | 83% | 1012 hPa | 0 mm | - | - | - |
| 1778102307 | 9.44° C | 81% | 1012 hPa | 0 mm | - | - | - |
| 1778101706 | 10° C | 79% | 1011.8 hPa | 0 mm | - | - | - |
| 1778101106 | 10° C | 77% | 1011.7 hPa | 0 mm | - | - | - |
| 1778100505 | 10° C | 75% | 1011.6 hPa | 0 mm | - | - | - |
| 1778099904 | 10.56° C | 76% | 1011.6 hPa | 0 mm | - | - | - |
| 1778099303 | 10.56° C | 77% | 1011.5 hPa | 0 mm | - | - | - |
| 1778098703 | 10.56° C | 77% | 1011.6 hPa | 0 mm | - | - | - |
| 1778098102 | 10.56° C | 76% | 1011.5 hPa | 0 mm | - | - | - |
| 1778097501 | 10.56° C | 76% | 1011.4 hPa | 0 mm | - | - | - |
| 1778096900 | 10° C | 76% | 1011.4 hPa | 0 mm | - | - | - |
| 1778096299 | 10.56° C | 76% | 1011.2 hPa | 0 mm | - | - | - |
| 1778095699 | 10.56° C | 76% | 1011.2 hPa | 0 mm | - | - | - |
| 1778095098 | 10.56° C | 75% | 1011 hPa | 0 mm | - | - | - |
| 1778094497 | 11.11° C | 73% | 1011 hPa | 0 mm | - | - | - |
| 1778093896 | 11.11° C | 71% | 1010.9 hPa | 0 mm | - | - | - |
| 1778093295 | 11.11° C | 70% | 1010.7 hPa | 0 mm | - | - | - |
| 1778092693 | 11.11° C | 69% | 1010.7 hPa | 0 mm | - | - | - |
| 1778092093 | 11.11° C | 69% | 1010.7 hPa | 0 mm | - | - | - |
| 1778091492 | 11.67° C | 69% | 1010.5 hPa | 0 mm | - | - | - |
| 1778090892 | 11.67° C | 68% | 1010.4 hPa | 0 mm | - | - | - |
| 1778090291 | 11.67° C | 68% | 1010.3 hPa | 0 mm | - | - | - |
| 1778089689 | 11.67° C | 67% | 1010.2 hPa | 0 mm | - | - | - |
| 1778089089 | 12.22° C | 67% | 1010.1 hPa | 0 mm | - | - | - |
| 1778088488 | 11.67° C | 69% | 1010 hPa | 0 mm | - | - | - |
* Rain latest hour (hover to see other rain measurements)
** Current wind speed in m/s (hover to see current wind gust speed)